Location: Borotín
(49.5055°N, 14.6142°E)
Time: 12:09:46
(UTC+00:00)

USA 308 - Visible Passes

Search period start: 26 September 2022 00:00
Search period end: 06 October 2022 00:00
Orbit: 543 x 552 km, 54.0° (Epoch: 31 August)

Date Brightness Start Highest point End Pass type
(mag) Time Alt. Az. Time Alt. Az. Time Alt. Az.
26 Sep 5.2 02:54:45 10° S 02:57:27 17° SE 03:00:10 10° E visible
27 Sep 4.8 02:48:54 16° S 02:50:45 21° SE 02:53:56 10° E visible
28 Sep 4.4 02:42:57 24° SSE 02:44:02 27° SE 02:47:33 10° E visible
28 Sep 2.8 04:19:00 10° WSW 04:23:09 80° NNW 04:27:19 10° ENE visible
29 Sep 4.0 02:36:53 32° SSE 02:37:20 33° SE 02:41:05 10° ENE visible
29 Sep 2.9 04:12:29 10° WSW 04:16:34 70° NNW 04:20:42 10° ENE visible
30 Sep 3.7 02:30:44 41° SE 02:30:44 41° SE 02:34:33 10° ENE visible
30 Sep 3.0 04:06:20 13° W 04:09:57 62° NNW 04:14:05 10° ENE visible
01 Oct 3.6 02:24:31 46° ESE 02:24:31 46° ESE 02:27:57 10° ENE visible
01 Oct 3.2 04:00:06 15° W 04:03:22 55° NNW 04:07:27 10° ENE visible
02 Oct 3.7 02:18:14 45° E 02:18:14 45° E 02:21:20 10° ENE visible
02 Oct 3.3 03:53:49 17° W 03:56:46 51° NNW 04:00:49 10° ENE visible
03 Oct 4.0 02:11:54 40° ENE 02:11:54 40° ENE 02:14:39 10° ENE visible
03 Oct 3.4 03:47:29 19° WNW 03:50:09 47° N 03:54:10 10° ENE visible
04 Oct 4.4 02:05:32 34° ENE 02:05:32 34° ENE 02:07:59 10° ENE visible
04 Oct 3.5 03:41:06 21° WNW 03:43:31 45° N 03:47:31 10° ENE visible
05 Oct 4.7 01:59:07 29° ENE 01:59:07 29° ENE 02:01:16 10° ENE visible
05 Oct 3.6 03:34:42 23° WNW 03:36:52 44° N 03:40:51 10° ENE visible
